2016-019A

Last updated on Thu Mar 24 2016 01:35:41 GMT+0000 (Coordinated Universal Time)

1 41393U 16019A 16083.58708881 -.42008515 78879+0 -30316-1 0 9999 2 41393 51.6567 125.5612 0010125 245.0162 257.5949 16.11195459 73

Satellite not in orbit